Vertical_Velocity
4 5 2 -1 -3 8 14 7 7 2 17 17 7 7 4 1 18 16 -0 1 -2 5
-2 -4 1 4 3 5 2 15 -3 18 15 3 20 1 37 1 1 4 4 25 -3 1
-3 2 -1 1 1 2 3 2 4 3 12 12 13 3 3 5 8 0 11 13 -2 -5
-0 1 -1 -2 1 1 3 1 1 4 0 7 2 -1 11 -4 5 9 8 6 -9 24
2 1 2 4 1 -0 -1 1 -1 3 2 8 3 4 21 16 20 7 -4 -2 7 20
1 1 1 0 -1 2 1 -0 -1 1 1 1 1 1 2 22 10 13 4 6 -4 13
-1 -0 -2 1 0 0 -1 0 1 -1 -0 -2 -1 2 0 0 -0 0 16 19 0 15
-2 -1 -0 -1 -4 -4 -0 -1 -0 -4 -0 3 2 -1 1 5 5 8 6 2 1 5
-2 -2 -4 -3 -0 -0 -1 -3 -3 -2 -2 -1 -1 -1 -3 -3 -2 -5 1 -3 5 8
-1 -1 -3 -3 -3 -4 -4 -4 -2 -2 -1 -1 -1 -0 1 -5 -2 -1 -3 -3 3 -0
-4 -3 -1 -2 -4 -4 -3 -3 -2 -4 -4 -3 -2 -1 -1 -8 5 -1 -0 -1 -0 -2
-1 -3 -3 -2 -4 -2 -2 -2 -2 -2 -4 -0 -5 -3 -3 -3 -1 2 0 -1 -0 0
-3 -3 -3 -5 -4 -2 -3 -2 -3 -4 -3 -5 2 -2 -3 -2 -4 -5 -1 3 4 3
-4 -6 -3 -2 -1 -3 -3 -4 -4 -4 -4 3 2 -2 -1 -5 -6 -2 -2 -1 4 4
Height
5566 5573 5579 5585 5592 5595 5605 5615 5620 5627 5634 5638 5643 5648 5653 5660 5664 5668 5673 5676 5682 5687
5551 5556 5564 5571 5577 5583 5589 5592 5601 5609 5616 5622 5627 5632 5637 5643 5650 5654 5658 5660 5665 5671
5536 5541 5548 5554 5560 5567 5573 5579 5586 5590 5597 5604 5610 5615 5623 5628 5632 5639 5642 5643 5648 5654
5524 5528 5533 5538 5544 5550 5556 5563 5568 5572 5580 5586 5592 5599 5604 5609 5613 5619 5623 5629 5634 5635
5511 5515 5519 5524 5529 5534 5539 5543 5549 5556 5562 5567 5574 5581 5586 5592 5595 5600 5605 5611 5617 5620
5499 5502 5506 5509 5514 5519 5523 5527 5531 5537 5541 5548 5554 5560 5564 5570 5575 5582 5587 5592 5599 5604
5487 5490 5493 5496 5499 5503 5507 5511 5516 5519 5523 5528 5533 5537 5543 5547 5553 5560 5566 5571 5577 5582
5476 5478 5481 5483 5486 5488 5491 5494 5498 5501 5505 5508 5513 5516 5520 5525 5531 5537 5544 5549 5555 5561
5464 5467 5469 5471 5474 5476 5477 5479 5482 5484 5487 5489 5492 5495 5499 5503 5508 5513 5519 5525 5531 5538
5453 5455 5457 5459 5461 5462 5464 5465 5467 5469 5470 5472 5473 5476 5479 5483 5489 5494 5500 5504 5509 5514
5439 5441 5443 5444 5446 5447 5449 5451 5452 5454 5456 5457 5457 5459 5460 5462 5469 5471 5475 5481 5486 5490
5419 5421 5423 5425 5427 5429 5430 5431 5433 5435 5438 5440 5441 5441 5441 5443 5447 5451 5454 5459 5462 5467
5401 5402 5403 5404 5406 5407 5409 5410 5412 5414 5416 5417 5420 5421 5423 5424 5427 5430 5434 5437 5439 5443
5382 5383 5383 5383 5384 5383 5385 5385 5386 5389 5391 5393 5395 5397 5398 5401 5405 5409 5412 5415 5420 5423